Location: Unspecified
(0.0000°N, 0.0000°E)
Time: 22:13:25
(UTC+00:00)

Hubble Space Telescope - Pass Details

Date: 27 September 2023
Orbit: 521 x 525 km, 28.5° (Epoch: 04 October)

Event Time Altitude Azimuth Distance (km) Brightness Sun altitude
Rises 20:05:19 0° 245° (WSW) 2,633 5.2 -33.6°
Reaches altitude 10° 20:07:35 10° 249° (WSW) 1,744 4.1 -34.1°
Enters shadow 20:08:10 14° 250° (WSW) 1,524 3.7 -34.3°
